COSMOS 1275 DEB, 12652

Orbit data source: Space-Track

COSMOS 1275 DEB, 12652 is space debris in LEO originally from a launch on Thu, 04 Jun 1981 UTC launched from the Plesetsk Missile And Space Complex (PKMTR). Debris objects in space refer to the collection of defunct objects orbiting the Earth. Examples of debris include non-operational satellites, rocket bodies, and fragments generated from explosions, collisions, or faulty payload assembly.

Loading next visibility...
Identifier
12652, 1981-053G
Orbit
LEO
Country
Flag of CISCIS
Related business
Manufacturer
Unknown
Mission
Spacecraft
Bus & Motor
Unknown
Mass
Unknown
Launch date (UTC)
1981-06-04 (45 years ago)
Launch vehicle
Unknown
Launch site
Plesetsk Missile And Space Complex (PKMTR)
Object type
Payload
Rocket body
Debris
Shape & HBR
Unknown shape, 0.1 m
Radar Cross Section
Small (<0.1 m²)

Expand to show TLE details & history
Last TLE update: 21 hours ago

TLE from 21 hours ago
0 COSMOS 1275 DEB
1 12652U 81053G   26034.17260538  .00001244  00000-0  78861-3 0  9994
2 12652  82.9364 100.6487 0050633   9.2191  20.2449 14.02562503177098
Epoch: 2026-02-03T04:08Z
TLE epoch observation values (Epoch: 2026-02-03T04:08:33.104Z)
Latitude
29.46728°
Longitude
-90.85312°
Altitude
854.141 km
Speed
7.446 km/s
True Right ascension
06h 58m 34s
True Declination
29° 19' 20"
Sunlit
Object was in full shadow at epoch
Visualization orbit readout
Latitude
Unknown
Longitude
Unknown
Altitude
Unknown
Speed
Unknown
Apparent Right ascension
Unknown
Apparent Declination
Unknown
Sunlit
N/A
Visualization observer readout
Local Sidereal Time
03:12:33
Azimuth
Unknown
Elevation
Unknown
Doppler factor
Unknown
Orbital elements
Apogee altitude
918.807 km
Perigee altitude
845.286 km
Semi-major axis
7,260.183 km
Eccentricity
0.00506
Inclination
82.9364°
RAAN
100.6487°
Arg. of periapsis
9.2191°
True anomaly
20.44687°
Mean anomaly
20.2449°
Eccentric anomaly
20.34577°
Mean motion
3.5085 °/min
Orbital period
102.61 mins
BSTAR
0.00078861
Loading maneuver chart data...
Computing Atmospheric mass density...
Loading historical data...
Loading historical data...
Loading historical data...
Loading historical data...
Loading historical data...
Loading historical data...
Loading historical data...

Documentation

Showing up to 5 results
|